Location: Aufkirchen
(47.9603°N, 11.3653°E)
Time: 17:17:13
(UTC+01:00)

X-37B - Visible Passes

Search period start: 27 October 2020 00:00
Search period end: 06 November 2020 00:00
Orbit: 382 x 392 km, 45.0° (Epoch: 15 October)

Date Brightness Start Highest point End Pass type
(mag) Time Alt. Az. Time Alt. Az. Time Alt. Az.
31 Oct 3.7 06:23:51 10° S 06:25:17 12° SSE 06:26:44 10° ESE visible
02 Nov 3.2 06:02:11 10° SSW 06:04:31 19° SSE 06:06:51 10° ESE visible
03 Nov 3.5 05:04:45 10° S 05:06:11 12° SSE 05:07:36 10° ESE visible
04 Nov 2.4 05:41:18 11° SW 05:43:48 27° SSE 05:46:33 10° E visible
05 Nov 3.0 04:45:41 19° SE 04:45:41 19° SE 04:47:44 10° ESE visible
05 Nov 1.5 06:18:32 10° WSW 06:21:35 44° S 06:24:40 10° E visible
